Flag for Australia Weather past 2 weeks in Perth, Western Australia, Australia

Now
70 °F

Clear.


Feels Like: 70 °F
Forecast: 67 / 86 °F
Wind: 16 mph from East

Location: Belmont Perth Airport

Current Time: Mar 5, 2015 at 3:00:03 AM

Latest Report: Mar 5, 2015 at 2:00 AM


Visibility: 10 mi

Pressure: 30.15 "Hg

Humidity: 53%

Dew point: 52 °F

Location of PerthLocation

Historic Weather in Perth — Graph

°F

Perth temperature yesterday

Maximum temperature yesterday: 90 °F (at 2:51 PM)
Minimum temperature yesterday: 64 °F (at 4:30 AM)
Average temperature yesterday: 78 °F

Past Weeks' High & Low Weather Summary

 TemperatureHumidityPressure
High100 °F (Feb 24, 11:30 AM)100% (Feb 25, 5:30 AM)30.18 "Hg (Feb 25, 5:30 AM)
Low61 °F (Feb 21, 4:30 AM)19% (Feb 28, 3:30 PM)29.65 "Hg (Feb 26, 2:00 PM)
Average77 °F54%29.89 "Hg
* Reported Feb 18 2:00 AM — Mar 5 2:00 AM, Perth, Weather by CustomWeather, © 2015

Note: Actual official high and low records may vary slightly from our data, if they occured in-between our weather recording intervals... More about our weather records

Advertising

Perth weather history for previous 24 hours

 ConditionsComfort  
Time TempWeatherWind HumidityBarometerVisibility
2:00 AM
Thu, Mar 5
70 °FClear.16 mph53%30.15 "Hg10 mi
1:30 AM72 °FClear.16 mph53%30.15 "Hg10 mi
1:00 AM73 °FClear.18 mph47%30.15 "Hg10 mi
12:30 AM75 °FClear.20 mph41%30.15 "Hg10 mi
12:00 AM75 °FClear.20 mph41%30.15 "Hg10 mi
11:30 PM
Wed, Mar 4
77 °FClear.17 mph39%30.15 "Hg10 mi
11:00 PM77 °FClear.20 mph39%30.12 "Hg10 mi
10:30 PM79 °FClear.18 mph37%30.12 "Hg10 mi
10:00 PM79 °FClear.15 mph32%30.12 "Hg10 mi
9:30 PM79 °FClear.12 mph34%30.12 "Hg10 mi
9:00 PM79 °FClear.10 mph34%30.12 "Hg10 mi
8:30 PM79 °FClear.10 mph34%30.12 "Hg10 mi
8:00 PM81 °FClear.10 mph34%30.09 "Hg10 mi
7:30 PM82 °FClear.10 mph30%30.09 "Hg10 mi
7:00 PM84 °FClear.10 mph27%30.09 "Hg10 mi
6:30 PM86 °FClear.12 mph25%30.07 "Hg10 mi
6:00 PM88 °FClear.15 mph24%30.07 "Hg10 mi
5:30 PM88 °FSunny.13 mph24%30.07 "Hg10 mi
5:00 PM90 °FSunny.13 mph24%30.07 "Hg10 mi
4:30 PM90 °FSunny.15 mph24%30.07 "Hg10 mi
4:00 PM90 °FScattered clouds.14 mph24%30.07 "Hg10 mi
3:30 PM90 °FSunny.14 mph24%30.07 "Hg10 mi
3:00 PM90 °FScattered clouds.10 mph24%30.07 "Hg10 mi
2:51 PM90 °FSunny.17 mph26%30.07 "Hg10 mi
2:30 PM88 °FSunny.16 mph27%30.07 "Hg10 mi
2:00 PM88 °FSunny.16 mph27%30.09 "Hg10 mi
1:30 PM88 °FSunny.16 mph27%30.09 "Hg10 mi
1:00 PM88 °FSunny.17 mph27%30.09 "Hg10 mi
12:30 PM88 °FSunny.13 mph29%30.12 "Hg10 mi
12:00 PM86 °FSunny.9 mph33%30.12 "Hg10 mi
11:30 AM84 °FSunny.13 mph35%30.12 "Hg10 mi
11:00 AM82 °FSunny.10 mph40%30.15 "Hg10 mi
10:30 AM81 °FSunny.13 mph42%30.15 "Hg10 mi
10:00 AM77 °FSunny.15 mph47%30.18 "Hg10 mi
9:30 AM75 °FSunny.17 mph50%30.18 "Hg10 mi
9:00 AM72 °FSunny.13 mph57%30.18 "Hg10 mi
8:30 AM70 °FSunny.17 mph60%30.18 "Hg10 mi
8:00 AM68 °FSunny.15 mph64%30.18 "Hg10 mi
7:00 AM66 °FPassing clouds.13 mph68%30.15 "HgN/A
6:30 AM64 °FPassing clouds.14 mph73%30.15 "HgN/A
6:00 AM64 °FPassing clouds.12 mph73%30.12 "HgN/A
5:30 AM64 °FSunny.9 mph73%30.12 "Hg10 mi
5:00 AM64 °FClear.10 mph73%30.09 "Hg10 mi
4:30 AM64 °FClear.7 mph73%30.09 "Hg10 mi
4:00 AM66 °FClear.9 mph68%30.09 "Hg10 mi
3:00 AM66 °FClear.9 mph68%30.09 "Hg10 mi
Weather by CustomWeather, © 2015

See weather overviewHow to use our weather pages